East Taunton, MA

11:11 PM EDT on September 28, 2016 (GMT -0400)
Taunton Municipal

Weather History for KTAN - June, 2014

Change the Weather History Date:

Sunday, June 15, 2014

  Actual Average Record
Temperature  
Mean Temperature 68 °F -  
Max Temperature 82 °F 79 °F 94 °F (1956)
Min Temperature 55 °F 53 °F 36 °F (1978)
Cooling Degree Days 4    
Growing Degree Days 18 (Base 50)    
Moisture  
Dew Point 52 °F    
Average Humidity 60    
Maximum Humidity 84    
Minimum Humidity 38    
Precipitation  
Precipitation 0.00 in - - ()
Sea Level Pressure  
Sea Level Pressure 29.97 in    
Wind  
Wind Speed 5 mph (NW)    
Max Wind Speed 10 mph    
Max Gust Speed 22 mph    
Visibility 10 miles    
Events      
Averages and records for this station are not official NWS values.
T = Trace of Precipitation, MM = Missing Value Source: NWS Daily Summary

Daily Weather History Graph

Daily Weather History Graph

Search for Another Location

Airport or City:

Trip Planner

Search our weather history database for the weather conditions in past years. The results will help you decide how hot, cold, wet, or windy it might be!

Date:

Astronomy

Jun. 15, 2014 Rise Set
Actual Time 5:08 AM EDT 8:20 PM EDT
Civil Twilight 4:34 AM EDT 8:55 PM EDT
Nautical Twilight 3:49 AM EDT 9:39 PM EDT
Astronomical Twilight 2:56 AM EDT 10:32 PM EDT
Moon 10:26 PM EDT (6/15) 8:00 AM EDT (6/15)
Length of Visible Light 16h 21m
Length of Day
15h 12m
Waning Gibbous, 91% of the Moon is Illuminated
Jun 15
Waning Gibbous
Jun 19
Last Quarter
Jun 27
New
Jul 5
First Quarter
Jul 12
Full

Hourly Weather History & Observations

Time (EDT) Temp. Heat Index Dew Point Humidity Pressure Visibility Wind Dir Wind Speed Gust Speed Precip Events Conditions
12:52 AM 59.0 °F - 51.1 °F 75% 29.91 in 10.0 mi West 3.5 mph - N/A   Clear
1:52 AM 55.9 °F - 51.1 °F 84% 29.91 in 10.0 mi Calm Calm - N/A   Overcast
2:52 AM 55.9 °F - 51.1 °F 84% 29.90 in 10.0 mi West 3.5 mph - N/A   Mostly Cloudy
3:52 AM 57.0 °F - 51.1 °F 81% 29.91 in 10.0 mi WNW 4.6 mph - N/A   Partly Cloudy
4:52 AM 55.9 °F - 51.1 °F 84% 29.92 in 10.0 mi West 4.6 mph - N/A   Clear
5:52 AM 55.9 °F - 51.1 °F 84% 29.94 in 10.0 mi West 3.5 mph - N/A   Clear
6:52 AM 62.1 °F - 52.0 °F 70% 29.96 in 10.0 mi NW 4.6 mph - N/A   Clear
7:52 AM 64.9 °F - 53.1 °F 65% 29.97 in 10.0 mi North 9.2 mph 21.9 mph N/A   Clear
8:52 AM 69.1 °F - 54.0 °F 58% 29.98 in 10.0 mi Variable 6.9 mph 17.3 mph N/A   Clear
9:52 AM 70.0 °F - 54.0 °F 57% 29.98 in 10.0 mi NW 10.4 mph 17.3 mph N/A   Clear
10:52 AM 71.1 °F - 54.0 °F 55% 29.98 in 10.0 mi WNW 8.1 mph 16.1 mph N/A   Clear
11:52 AM 75.9 °F - 55.0 °F 48% 29.98 in 10.0 mi NW 4.6 mph - N/A   Clear
12:52 PM 77.0 °F - 55.0 °F 47% 29.98 in 10.0 mi Variable 6.9 mph - N/A   Clear
1:52 PM 79.0 °F - 54.0 °F 42% 29.96 in 10.0 mi WNW 8.1 mph - N/A   Clear
2:52 PM 80.1 °F 80.0 °F 54.0 °F 40% 29.96 in 10.0 mi Variable 5.8 mph - N/A   Partly Cloudy
3:52 PM 82.0 °F 81.4 °F 55.0 °F 39% 29.96 in 10.0 mi Variable 4.6 mph - N/A   Scattered Clouds
5:52 PM 82.0 °F 81.3 °F 54.0 °F 38% 29.95 in 10.0 mi NW 8.1 mph - N/A   Partly Cloudy
6:52 PM 80.1 °F 79.9 °F 53.1 °F 39% 29.96 in 10.0 mi NW 6.9 mph - N/A   Clear
7:52 PM 75.0 °F - 50.0 °F 41% 29.98 in 10.0 mi North 5.8 mph - N/A   Clear
8:52 PM 71.1 °F - 50.0 °F 47% 30.00 in 10.0 mi NNW 4.6 mph - N/A   Clear
9:52 PM 68.0 °F - 50.0 °F 52% 30.04 in 10.0 mi NNW 3.5 mph - N/A   Clear
10:52 PM 60.1 °F - 52.0 °F 75% 30.04 in 10.0 mi Calm Calm - N/A   Clear
11:52 PM 59.0 °F - 51.1 °F 75% 30.04 in 10.0 mi Calm Calm - N/A   Clear